Beaver, WV

4:45 AM EDT on August 24, 2016 (GMT -0400)
Raleigh County Memorial

Weather History for KBKW - January, 2012

Change the Weather History Date:

Saturday, January 14, 2012

  Actual Average Record
Temperature  
Mean Temperature 25 °F 31 °F  
Max Temperature 29 °F 39 °F 72 °F (1932)
Min Temperature 20 °F 23 °F 0 °F (1997)
Degree Days  
Heating Degree Days 40 34  
Month to date heating degree days 440 476  
Since 1 July heating degree days 2186 2569  
Cooling Degree Days 0 0  
Month to date cooling degree days 0 0  
Year to date cooling degree days 0 0  
Moisture  
Dew Point 16 °F    
Average Humidity 67    
Maximum Humidity 88    
Minimum Humidity 46    
Precipitation  
Precipitation 0.01 in 0.09 in 1.22 in (1907)
Month to date precipitation 1.00 1.28  
Year to date precipitation 1.00 1.28  
Snow  
Snow 1.50 in - - ()
Month to date snowfall 10.6  
Since 1 September snowfall 18.4  
Snow Depth 4.00 in    
Sea Level Pressure  
Sea Level Pressure 30.08 in    
Wind  
Wind Speed 9 mph (West)    
Max Wind Speed 20 mph    
Max Gust Speed 25 mph    
Visibility 6 miles    
Events Snow    
T = Trace of Precipitation, MM = Missing Value Source: NWS Daily Summary

Daily Weather History Graph

Daily Weather History Graph

Search for Another Location

Airport or City:

Trip Planner

Search our weather history database for the weather conditions in past years. The results will help you decide how hot, cold, wet, or windy it might be!

Date:

Astronomy

Jan. 14, 2012 Rise Set
Actual Time 7:39 AM EST 5:27 PM EST
Civil Twilight 7:10 AM EST 5:56 PM EST
Nautical Twilight 6:38 AM EST 6:29 PM EST
Astronomical Twilight 6:06 AM EST 7:00 PM EST
Moon 11:39 PM EST (1/14) 10:31 AM EST (1/14)
Length of Visible Light 10h 46m
Length of Day
9h 48m
Waning Gibbous, 69% of the Moon is Illuminated
Jan 14
Waning Gibbous
Jan 16
Last Quarter
Jan 23
New
Jan 30
First Quarter
Feb 7
Full

Hourly Weather History & Observations

Time (EST) Temp. Windchill Dew Point Humidity Pressure Visibility Wind Dir Wind Speed Gust Speed Precip Events Conditions
12:30 AM 19.4 °F 6.0 °F 15.8 °F 86% 29.98 in 5.0 mi WNW 13.8 mph 19.6 mph 0.00 in Snow Light Snow
12:51 AM 19.9 °F 10.1 °F 14.0 °F 78% 30.12 in 2.5 mi West 8.1 mph - 0.00 in Snow Light Snow
1:04 AM 19.4 °F 8.6 °F 15.8 °F 86% 29.98 in 1.8 mi West 9.2 mph - 0.00 in Snow Light Snow
1:11 AM 19.4 °F 8.6 °F 15.8 °F 86% 29.98 in 2.5 mi West 9.2 mph - 0.00 in Snow Light Snow
1:25 AM 19.4 °F 8.6 °F 15.8 °F 86% 29.98 in 1.5 mi West 9.2 mph - 0.00 in Snow Light Snow
1:39 AM 19.4 °F 7.9 °F 15.8 °F 86% 29.98 in 2.5 mi West 10.4 mph - 0.00 in Snow Light Snow
1:51 AM 19.9 °F 8.6 °F 15.1 °F 81% 30.13 in 3.0 mi West 10.4 mph - 0.00 in Snow Light Snow
2:47 AM 19.4 °F 8.6 °F 15.8 °F 86% 29.99 in 2.0 mi West 9.2 mph - 0.00 in Snow Light Snow
2:51 AM 19.9 °F 10.1 °F 15.1 °F 81% 30.14 in 2.0 mi West 8.1 mph - 0.00 in Snow Light Snow
3:02 AM 19.4 °F 9.5 °F 15.8 °F 86% 29.99 in 3.0 mi West 8.1 mph - 0.00 in Snow Light Snow
3:13 AM 19.4 °F 9.5 °F 15.8 °F 86% 29.99 in 2.0 mi West 8.1 mph - 0.00 in Snow Light Snow
3:20 AM 19.4 °F 9.5 °F 15.8 °F 86% 29.99 in 1.8 mi West 8.1 mph - 0.00 in Snow Light Snow
3:27 AM 19.4 °F 9.5 °F 15.8 °F 86% 30.00 in 2.5 mi West 8.1 mph - 0.00 in Snow Light Snow
3:51 AM 19.9 °F 11.1 °F 16.0 °F 85% 30.13 in 2.5 mi West 6.9 mph - 0.00 in Snow Light Snow
3:58 AM 19.4 °F 8.6 °F 15.8 °F 86% 29.99 in 3.0 mi West 9.2 mph - 0.00 in Snow Light Snow
4:08 AM 19.4 °F 8.6 °F 15.8 °F 86% 29.99 in 2.0 mi West 9.2 mph 17.3 mph 0.00 in Snow Light Snow
4:28 AM 19.4 °F 7.9 °F 15.8 °F 86% 29.98 in 3.0 mi West 10.4 mph - 0.01 in Snow Light Snow
4:38 AM 19.4 °F 7.2 °F 15.8 °F 86% 29.99 in 2.5 mi West 11.5 mph - 0.01 in Snow Light Snow
4:51 AM 19.9 °F 8.6 °F 16.0 °F 85% 30.13 in 3.0 mi West 10.4 mph - 0.01 in Snow Light Snow
5:00 AM 19.4 °F 7.2 °F 15.8 °F 86% 30.00 in 2.5 mi West 11.5 mph - 0.00 in Snow Light Snow
5:11 AM 19.4 °F 8.6 °F 15.8 °F 86% 30.00 in 3.0 mi West 9.2 mph - 0.00 in Snow Light Snow
5:51 AM 19.9 °F 10.1 °F 15.1 °F 81% 30.13 in 4.0 mi WNW 8.1 mph - 0.00 in Snow Light Snow
6:51 AM 19.9 °F 7.3 °F 12.9 °F 74% 30.16 in 10.0 mi West 12.7 mph 20.7 mph 0.00 in   Overcast
7:51 AM 19.9 °F 8.6 °F 14.0 °F 78% 30.18 in 10.0 mi West 10.4 mph - N/A   Overcast
8:51 AM 21.0 °F 11.4 °F 14.0 °F 74% 30.18 in 8.0 mi West 8.1 mph - 0.00 in Snow Light Snow
9:51 AM 21.2 °F 7.8 °F 12.2 °F 68% 30.05 in 10.0 mi West 15.0 mph 20.7 mph N/A   Overcast
10:18 AM 23.0 °F 11.7 °F 12.2 °F 63% 30.07 in 10.0 mi West 11.5 mph - N/A   Scattered Clouds
10:35 AM 23.0 °F 11.7 °F 12.2 °F 63% 30.06 in 10.0 mi WSW 11.5 mph - N/A   Mostly Cloudy
10:44 AM 23.0 °F 11.7 °F 12.2 °F 63% 30.06 in 10.0 mi WSW 11.5 mph - N/A   Scattered Clouds
10:51 AM 24.1 °F 12.0 °F 12.9 °F 62% 30.19 in 10.0 mi West 13.8 mph - N/A   Scattered Clouds
11:51 AM 26.1 °F 14.0 °F 12.0 °F 55% 30.14 in 10.0 mi West 15.0 mph - N/A   Clear
12:51 PM 28.0 °F 17.5 °F 10.9 °F 49% 30.12 in 10.0 mi West 12.7 mph 20.7 mph N/A   Clear
1:51 PM 28.0 °F 17.5 °F 10.9 °F 49% 30.10 in 10.0 mi West 12.7 mph - N/A   Clear
2:51 PM 28.0 °F 18.1 °F 10.9 °F 49% 30.12 in 10.0 mi WSW 11.5 mph 18.4 mph N/A   Overcast
3:51 PM 27.0 °F 16.1 °F 12.9 °F 56% 30.12 in 10.0 mi WSW 12.7 mph - N/A   Overcast
4:51 PM 27.0 °F 18.7 °F 15.1 °F 61% 30.12 in 10.0 mi WSW 8.1 mph - N/A   Mostly Cloudy
5:51 PM 27.0 °F 19.5 °F 16.0 °F 63% 30.12 in 10.0 mi SW 6.9 mph - N/A   Overcast
6:51 PM 25.0 °F 19.3 °F 18.0 °F 75% 30.13 in 9.0 mi WSW 4.6 mph - 0.00 in Snow Light Snow
7:51 PM 25.0 °F 18.1 °F 18.0 °F 75% 30.15 in 10.0 mi WSW 5.8 mph - 0.00 in   Overcast
8:38 PM 24.8 °F 16.1 °F 21.2 °F 86% 30.05 in 1.8 mi WSW 8.1 mph - 0.00 in Snow Light Snow
8:48 PM 24.8 °F 17.9 °F 21.2 °F 86% 30.05 in 3.0 mi WSW 5.8 mph - 0.00 in Snow Light Snow
8:51 PM 25.0 °F 17.1 °F 21.0 °F 85% 30.18 in 4.0 mi WSW 6.9 mph - 0.00 in Snow Light Snow
9:36 PM 24.8 °F 20.5 °F 19.4 °F 80% 30.05 in 5.0 mi West 3.5 mph - 0.00 in Snow Light Snow
9:51 PM 24.1 °F - 19.9 °F 84% 30.17 in 10.0 mi Calm Calm - 0.00 in   Overcast
10:51 PM 23.0 °F - 19.9 °F 88% 30.17 in 7.0 mi Calm Calm - 0.00 in   Overcast
11:14 PM 23.0 °F - 21.2 °F 93% 30.05 in 10.0 mi Calm Calm - N/A   Overcast
11:51 PM 24.1 °F - 21.0 °F 88% 30.16 in 7.0 mi Calm Calm - 0.00 in   Overcast